STARLINK-35275 (65756 NORAD) Tracking and Keplerian Element Data

This shows tracking and keplerian element data for the satellite.

Feedback or suggestion? Click here.




ElementValue
Catalog65756
NameSTARLINK-35275
Epoch Orbit1436
Epoch Day354.14759127
Epoch Year2025
RAAN342.473
Inclination53.161
Eccentricity0.0002264
Argument of Perigee129.6053
Mean Anonmoly230.5148
Mean Motion15.30203822
Decay Rate0.00019508
L11 65756U 25216Y 25354.14759127 .00019508 00000+0 66895-3 0 9999
L22 65756 53.1610 342.4730 0002264 129.6053 230.5148 15.30203822 14363



Live tracking and technical data element details for STARLINK-35275 (NORAD 65756). STARLINK-35275 can be tracked NOW for your location showing map with azimuth and elevation plus other details from your city location.







IsCatalogInMostPopularTable: catalog: 65756, numindb: 4
Update: records affected: 1



GetName: 65756 STARLINK-35275

Hit Count: updated at: Tue, 10 Feb 2026 03:54:56 GMT